Location: Nelson
(38.9945°N, 93.0321°W)
Time: 14:27:58
(UTC+00:00)

ACS3 Solar Sail - Pass Details

Date: 02 July 2024
Orbit: 993 x 1023 km, 97.4° (Epoch: 18 July)

Event Time Altitude Azimuth Distance (km) Brightness Sun altitude
Exits shadow 02:28:50 10° 122° (ESE) 2,781 6.5 -8.3°
Reaches altitude 10° 02:28:55 10° 121° (ESE) 2,755 6.5 -8.4°
Maximum altitude 02:33:58 27° 66° (ENE) 1,805 6.0 -9.1°
Drops below altitude 10° 02:39:02 10° 12° (NNE) 2,764 7.6 -9.9°
Sets 02:41:52 0° 1° (N) 3,718 8.5 -10.3°
